Wind_Speed
47 46 45 45 44 43 43 43 43 42 41 40 39 38 38 38 38 38 39 39 38 38 38 39 39 39 40 40 40 41 41 41 42 43 44 46 46 47 48 48 49 50 52 53 55 57 58 58 58 57 57 57 57 58 59 59 60 61 62 63 64 66
48 47 47 46 45 45 45 44 44 44 43 42 41 40 39 39 39 40 40 40 40 40 40 40 41 41 42 42 42 42 43 43 44 45 46 47 47 48 48 49 50 51 53 55 57 58 58 57 57 57 57 57 58 59 60 61 62 63 64 65 66 67
49 48 48 47 47 46 45 45 45 45 44 43 42 41 41 40 40 40 40 41 41 41 41 42 42 43 44 44 45 45 45 45 46 47 47 48 48 49 49 50 51 53 55 57 57 58 57 57 57 57 57 58 59 60 61 62 63 65 66 67 68 69
49 49 48 47 47 46 46 45 45 44 44 44 44 43 43 42 42 42 42 42 42 43 43 44 45 45 46 46 47 46 47 47 48 48 49 49 49 49 50 51 53 55 57 58 58 58 57 57 57 58 59 59 60 62 63 64 65 66 67 69 70 72
49 49 48 47 47 46 46 45 45 44 44 44 44 44 44 44 44 44 44 44 44 45 46 46 47 47 48 48 48 48 48 49 49 49 49 49 49 50 52 54 56 57 57 58 58 57 57 58 58 59 60 60 62 63 64 66 67 68 70 71 73 74
49 49 48 47 47 46 46 45 45 45 45 45 45 46 45 45 45 45 45 46 46 46 47 47 48 48 49 49 49 49 50 50 50 50 50 50 51 52 54 55 56 57 57 57 57 58 58 58 59 60 60 61 63 64 66 67 69 70 72 74 75 75
50 49 48 47 46 46 45 45 45 45 45 46 46 46 46 46 46 46 46 46 47 47 48 48 48 49 49 49 50 50 50 50 51 51 51 51 53 54 55 56 57 57 57 57 58 58 59 59 60 61 62 63 64 66 67 69 71 73 75 76 76 76
51 50 49 47 47 46 45 45 45 45 45 45 45 45 45 45 45 46 46 46 47 47 48 48 49 49 50 50 50 51 51 51 51 51 52 53 54 55 56 56 57 57 58 58 59 59 60 61 62 62 63 65 66 67 69 71 73 75 76 77 77 76
51 50 49 48 47 46 45 45 45 45 44 44 44 44 44 44 45 45 46 46 47 48 48 49 50 50 51 51 51 52 52 51 51 52 53 54 55 56 57 58 59 59 60 60 61 61 62 63 64 64 65 66 68 69 71 73 75 76 77 77 76 76
49 48 47 47 46 45 45 45 44 44 44 44 44 44 44 45 45 46 46 47 48 49 49 50 51 51 52 52 52 52 51 51 52 53 55 56 57 58 59 60 60 61 61 62 63 64 64 65 66 67 67 69 70 72 73 75 76 76 76 76 75 74
49 47 46 45 45 45 44 44 44 44 44 44 44 44 45 45 46 47 47 48 49 50 50 51 52 52 52 52 51 51 51 52 53 55 56 58 59 60 60 61 61 62 63 64 65 66 66 67 68 69 70 71 73 74 75 75 75 74 74 74 74 73
49 48 47 45 44 43 42 43 43 43 43 43 44 44 45 46 47 48 48 49 50 51 52 52 52 52 51 51 50 51 52 54 55 57 58 59 60 61 61 62 63 64 65 66 67 67 68 69 70 71 72 73 74 75 75 74 73 73 73 73 72 72
47 46 45 44 43 42 42 42 43 43 44 44 45 46 47 47 48 48 49 50 51 52 52 52 51 50 50 50 52 53 55 56 57 58 59 60 61 62 63 64 65 66 66 67 68 69 70 71 72 73 74 74 74 74 73 73 73 73 73 72 70 70
45 44 44 43 43 43 43 43 44 44 45 46 48 48 49 49 50 51 52 52 52 51 51 50 50 50 51 53 54 56 57 58 59 59 61 62 63 63 64 65 66 67 68 68 69 71 72 73 73 74 74 73 73 72 72 72 73 72 71 70 70 71
44 44 43 43 44 44 45 46 46 47 48 49 50 50 51 51 52 52 52 52 51 51 51 51 52 53 54 56 57 58 58 59 60 61 62 63 64 64 65 66 67 68 69 70 71 72 73 74 74 73 73 72 71 71 72 72 71 70 69 70 71 72
44 44 44 45 46 46 48 48 49 50 51 51 52 52 52 52 52 52 52 52 52 53 53 54 55 56 57 58 59 59 60 60 61 62 63 64 65 66 67 68 69 70 71 72 73 74 73 73 72 71 71 71 71 71 71 70 69 69 70 71 72 74
46 47 47 48 49 49 50 51 51 52 53 53 53 53 53 53 53 54 54 54 55 55 56 57 57 59 59 60 60 60 60 61 61 62 64 65 67 68 69 70 71 72 73 73 73 73 72 71 70 70 70 70 70 70 69 68 68 69 71 72 74 75
49 50 50 50 51 51 51 51 52 52 53 53 53 54 54 54 55 55 55 55 56 57 58 58 59 59 59 59 60 61 61 62 63 65 66 68 69 70 71 72 73 73 73 73 72 71 70 70 70 70 70 69 68 68 67 68 69 71 72 73 75 76
51 51 51 51 51 51 51 51 52 52 52 53 53 53 54 54 55 55 56 56 57 57 58 58 58 59 59 60 61 63 64 65 66 67 69 70 71 72 72 72 72 72 71 71 70 70 70 70 70 69 68 67 66 66 68 69 70 71 72 74 76 78
50 51 51 51 51 51 51 52 52 52 53 53 53 54 54 55 55 56 56 57 57 57 58 58 59 60 61 63 65 66 68 69 69 70 71 71 72 72 71 71 70 70 70 70 70 70 70 70 69 67 66 66 66 67 69 70 71 72 74 75 78 80
50 50 50 50 50 51 51 52 52 53 53 53 54 54 54 55 55 56 56 57 58 58 59 60 62 63 65 67 68 69 70 70 71 71 71 70 70 69 69 69 69 69 70 70 70 70 69 67 66 65 65 66 67 68 69 70 71 73 75 77 79 81
50 50 50 50 50 51 51 52 52 53 53 53 54 54 54 55 56 56 58 59 59 60 62 63 65 66 68 69 69 70 70 69 69 68 68 67 67 67 68 68 69 69 70 70 69 68 66 65 65 66 67 68 69 69 70 71 73 75 77 79 80 82
50 50 50 50 51 51 51 52 52 53 54 54 55 55 56 57 58 59 60 61 62 63 64 65 66 67 67 67 67 66 66 66 65 65 65 66 67 67 68 68 69 69 69 68 66 64 64 64 66 67 68 69 69 70 71 73 75 77 78 80 82 84
49 50 50 51 51 52 52 53 54 54 55 56 56 57 58 59 60 61 61 62 63 64 64 64 64 64 63 63 62 63 63 63 64 65 66 67 67 68 68 68 68 68 67 65 64 63 64 66 67 68 69 69 70 72 74 76 77 79 80 82 83 85
49 50 51 51 52 53 54 54 55 56 56 57 58 58 59 60 61 62 62 62 62 62 61 61 60 60 60 60 61 62 63 63 64 65 66 67 67 67 67 67 67 66 65 64 64 64 66 67 68 69 69 71 72 74 76 77 79 81 82 83 85 86
50 51 52 53 53 54 55 56 56 57 58 58 59 60 60 60 60 60 60 59 59 59 58 58 59 59 60 61 62 63 63 64 65 66 66 66 66 66 66 65 65 64 64 64 65 66 67 68 69 70 71 73 75 76 77 79 81 82 83 84 85 85
52 52 53 53 54 55 55 56 56 57 57 57 58 58 57 57 57 57 57 57 57 57 58 58 59 60 61 62 62 63 64 64 64 64 64 64 64 64 64 64 63 64 65 66 66 67 68 69 70 72 73 75 76 78 79 80 82 83 84 84 84 85
52 52 52 53 53 53 54 54 54 54 54 54 54 54 54 55 55 55 56 56 57 57 58 59 60 61 61 62 62 62 62 62 62 62 62 63 63 63 63 63 63 65 66 67 68 69 70 71 72 73 75 76 77 79 80 81 82 82 83 83 84 85
52 52 52 53 53 53 53 53 53 53 54 54 54 54 55 55 56 56 57 57 58 58 59 59 60 60 60 60 60 60 60 61 61 61 61 61 62 62 62 63 65 66 67 67 68 70 71 72 74 75 76 77 78 79 80 80 81 81 82 83 84 85
53 53 54 54 55 55 55 55 55 55 55 56 56 56 57 57 57 57 57 57 58 58 58 58 58 58 58 58 58 59 59 60 60 60 60 60 61 62 63 65 66 67 67 68 70 71 73 74 75 77 77 78 78 79 79 80 80 81 82 83 84 85
56 56 56 56 57 57 57 57 58 58 58 58 58 57 57 57 57 56 56 56 56 56 56 56 56 57 57 57 58 58 59 59 59 59 60 61 62 64 65 67 68 68 68 70 71 73 75 76 77 78 78 78 78 79 79 79 80 82 83 84 85 86
58 58 58 58 58 59 59 59 59 59 58 58 57 56 56 55 54 54 54 54 54 54 55 56 56 57 57 57 57 57 58 58 59 60 62 63 64 65 66 68 69 69 70 72 73 75 76 77 78 78 78 78 78 79 79 80 82 83 84 85 86 87
59 59 59 59 59 59 59 58 58 57 56 56 55 54 54 53 53 53 53 54 55 56 56 56 56 56 56 56 57 58 59 60 61 62 63 64 65 66 68 70 70 71 72 73 74 76 77 78 78 77 77 77 78 79 80 82 83 84 85 86 87 88
59 59 59 58 58 57 57 56 55 55 54 54 53 53 53 53 53 54 54 55 55 55 55 55 55 55 56 57 58 59 61 62 62 64 65 66 67 69 70 71 72 73 74 74 75 77 78 78 77 77 77 78 79 80 81 82 84 85 86 87 88 89
58 57 57 57 57 56 55 55 54 53 53 53 53 53 53 53 53 53 53 53 53 53 54 55 56 57 58 59 60 61 62 63 64 65 67 68 70 71 72 73 73 73 74 75 77 78 78 77 77 77 78 79 79 80 82 83 85 86 87 88 89 89
55 55 55 55 54 54 54 53 53 52 52 53 53 52 52 52 52 52 53 53 54 55 56 57 58 59 60 60 61 62 63 65 66 68 69 70 71 72 73 73 73 73 74 76 78 79 78 77 77 78 78 79 80 81 82 84 86 87 88 89 89 88
52 53 53 53 53 53 53 53 54 54 53 53 53 53 53 53 54 54 55 56 57 57 58 59 59 60 61 62 63 64 66 67 68 69 71 72 72 73 73 73 74 75 76 78 78 78 78 78 78 79 79 80 81 82 84 86 87 88 88 88 87 86
53 53 53 53 54 54 54 55 55 55 55 55 54 54 55 55 56 57 57 57 58 58 59 59 60 61 62 64 65 67 68 69 70 71 72 72 73 74 74 74 75 76 77 78 79 79 79 80 80 80 81 81 82 84 86 87 88 87 87 86 84 83
Wind_Direction
242 243 245 246 248 249 250 250 251 252 253 254 255 256 258 259 260 261 262 264 266 267 269 270 270 271 272 272 274 275 277 278 280 282 284 285 286 287 288 290 291 292 292 293 293 292 292 292 292 293 293 294 294 295 296 297 299 300 301 301 302 302
243 245 246 247 248 249 250 251 252 253 254 256 257 258 259 260 260 261 263 264 266 267 268 269 270 270 271 272 274 275 276 279 281 283 284 285 285 286 288 289 290 291 291 291 291 291 291 291 292 292 293 294 294 296 297 298 299 300 301 301 301 302
244 245 247 248 249 250 251 252 253 254 255 256 258 259 260 261 262 262 264 265 266 267 268 269 270 271 271 272 273 274 276 279 280 281 282 283 284 286 287 289 290 290 290 290 290 290 290 291 292 293 293 294 295 297 298 299 299 300 300 301 301 302
247 248 249 250 251 252 253 254 254 255 256 257 258 260 261 262 263 264 265 266 267 268 269 270 270 271 271 271 272 274 276 278 279 280 281 282 284 286 288 289 290 290 289 289 289 290 291 291 292 293 294 295 296 298 298 299 299 300 300 301 302 302
250 251 251 252 253 253 254 256 257 258 258 259 260 261 262 263 264 265 266 267 268 269 270 270 270 270 270 271 272 274 276 278 279 280 281 282 284 286 288 289 289 289 289 289 290 290 291 292 292 293 294 296 297 298 298 299 299 300 301 301 302 303
250 252 253 253 254 255 256 257 258 259 260 261 261 262 263 264 265 266 267 268 269 269 269 269 269 269 269 271 273 275 276 278 279 280 281 283 284 286 287 288 288 288 289 289 290 290 291 291 292 294 295 296 297 298 299 299 300 300 301 302 303 304
251 252 253 254 255 256 257 258 259 259 260 261 261 263 264 265 266 267 268 268 268 268 268 268 268 268 270 272 274 275 277 278 279 280 281 283 285 286 287 287 288 288 288 288 289 290 290 292 293 295 296 297 298 298 299 299 300 301 301 302 303 303
251 253 254 255 256 257 257 258 259 260 260 261 262 263 264 265 266 267 267 267 267 267 267 267 268 269 271 273 274 276 277 278 279 280 282 284 285 286 287 287 287 287 287 288 289 290 291 293 294 296 297 297 298 298 299 299 300 301 301 302 302 303
250 252 254 255 256 257 258 259 259 260 261 262 263 264 265 266 266 266 266 266 266 267 267 268 269 271 272 274 275 276 277 278 280 281 283 285 285 286 286 286 286 287 287 288 289 290 292 294 295 296 296 297 297 298 299 299 300 301 301 302 302 302
250 251 253 254 256 257 258 259 260 261 263 263 264 265 265 266 266 266 266 266 266 267 268 269 270 271 272 274 275 276 278 279 281 283 284 285 285 285 286 286 287 287 288 289 291 292 293 295 295 296 297 297 298 298 299 299 300 301 301 301 302 303
251 253 254 255 257 258 259 260 261 262 262 263 263 264 264 264 264 265 265 266 266 267 268 269 270 271 273 274 276 278 279 281 283 284 284 284 285 285 286 287 287 288 290 291 292 294 294 295 296 296 297 298 298 299 299 299 300 301 301 302 302 303
253 255 256 257 258 259 259 260 261 261 261 262 263 263 263 263 264 264 265 266 267 268 268 269 271 272 274 276 278 279 281 282 283 283 283 284 285 285 286 287 288 290 291 292 293 294 295 295 296 297 298 298 298 299 299 300 300 301 301 302 302 303
254 255 256 257 257 257 258 258 259 260 261 261 262 262 262 263 264 265 266 266 267 268 269 271 273 274 276 277 279 280 281 281 282 282 283 284 285 286 287 288 289 291 292 292 293 294 295 296 296 297 298 298 298 298 299 300 300 301 301 302 303 303
252 253 254 255 256 257 257 257 258 259 259 260 261 261 262 263 264 265 265 266 267 269 271 272 273 275 276 277 279 280 281 281 282 283 284 284 285 286 288 289 290 291 292 292 293 294 295 296 296 297 297 297 298 299 299 300 300 301 302 302 303 303
251 252 253 254 256 256 257 257 258 259 259 260 261 262 263 263 264 264 265 267 268 270 271 272 273 275 277 279 280 280 281 282 283 283 284 285 286 287 288 289 290 291 292 292 293 294 295 296 296 296 297 298 298 299 299 300 301 302 302 302 303 304
252 252 253 254 254 255 256 257 257 258 258 259 260 261 262 263 264 265 266 268 269 270 272 273 275 277 278 280 280 281 282 282 283 284 285 286 287 288 288 289 290 291 292 293 294 294 295 295 296 296 297 298 299 299 300 301 301 302 302 303 304 305
253 253 253 253 253 253 254 255 255 257 258 259 260 261 262 264 265 266 267 269 270 272 274 275 277 278 279 280 281 282 282 283 284 285 285 286 287 287 288 289 290 291 292 293 294 294 294 295 296 297 297 298 299 299 300 301 301 302 303 304 305 306
253 253 254 254 254 255 256 257 258 259 260 261 262 263 264 265 266 268 269 271 272 273 275 276 278 279 280 280 281 282 282 283 284 284 285 286 287 287 288 289 290 291 292 293 293 294 294 295 296 297 298 298 299 299 300 301 302 303 304 306 307 307
253 254 255 256 258 259 260 260 261 262 263 264 264 265 266 267 269 270 271 272 274 275 276 277 278 279 280 280 281 282 283 283 284 285 285 286 287 287 288 289 290 291 292 292 293 294 295 295 296 297 297 298 298 299 300 301 303 305 306 307 307 307
254 255 256 257 259 260 262 263 263 264 264 265 266 267 268 269 270 271 272 274 274 275 276 277 278 279 280 281 281 282 283 284 284 285 285 286 287 288 289 290 290 291 291 292 293 294 295 296 296 297 297 297 298 300 301 303 305 306 307 307 307 307
256 257 258 259 260 262 262 263 264 265 265 266 267 268 269 270 271 272 273 273 274 275 276 277 278 279 280 281 282 282 283 284 284 285 285 286 287 288 289 289 290 290 291 292 293 294 295 295 296 296 297 298 299 301 303 305 306 306 306 306 306 306
258 259 260 261 261 262 262 263 264 265 266 267 268 269 270 270 270 271 271 272 273 275 276 277 278 279 280 281 281 282 283 283 284 285 286 286 287 287 288 289 289 290 291 292 293 294 295 295 296 297 298 300 302 303 305 305 306 305 305 305 306 306
260 261 261 262 262 263 264 264 265 266 267 267 268 269 269 269 269 270 271 272 274 275 277 278 278 279 279 280 281 281 282 283 283 284 285 285 286 287 288 289 290 290 291 292 293 293 294 296 297 298 300 302 303 304 304 304 304 305 305 305 305 306
259 260 261 262 262 263 263 264 264 265 265 266 266 267 267 268 269 270 271 273 274 276 277 277 278 278 279 279 280 281 281 282 283 284 284 285 286 287 288 289 289 290 291 291 292 294 295 297 298 300 302 303 303 303 303 303 304 304 304 305 306 306
260 260 260 261 261 262 262 263 263 264 265 265 266 267 267 269 270 271 273 274 275 276 276 277 277 278 279 279 280 281 281 282 283 283 284 285 286 287 288 289 289 290 290 291 293 295 297 298 300 302 302 302 302 302 302 303 303 304 305 305 306 306
262 262 262 262 262 263 263 264 265 265 266 267 268 269 270 271 272 273 274 275 275 276 276 277 277 278 279 279 280 280 281 282 282 283 284 285 286 287 288 288 289 289 291 292 294 297 299 300 301 301 301 301 301 302 302 303 303 304 305 305 306 306
263 264 264 264 265 266 266 267 268 269 269 270 271 272 273 273 274 274 275 275 275 276 276 277 277 278 278 279 279 280 280 281 282 283 284 285 286 286 287 287 288 290 292 294 296 298 299 300 300 300 300 300 301 301 302 303 303 304 305 305 306 306
266 267 267 268 268 268 269 270 271 271 272 273 274 274 275 275 275 275 275 275 275 276 276 276 277 277 277 278 278 279 280 281 282 283 284 284 284 285 286 287 289 291 293 295 297 298 298 299 299 299 299 300 300 301 302 303 303 304 305 305 306 307
268 269 269 270 270 271 271 272 273 274 274 274 275 275 275 275 275 275 275 276 276 276 276 276 276 276 277 277 278 279 280 281 282 282 282 283 283 284 286 288 290 292 294 296 296 297 297 297 298 298 299 299 300 301 302 303 303 304 305 306 306 307
268 268 269 270 271 271 272 273 273 274 274 274 274 274 275 275 275 276 276 275 275 275 275 276 276 277 277 278 279 280 281 281 281 281 281 282 284 286 288 290 292 293 295 295 295 296 296 297 297 298 298 299 300 301 302 302 303 304 305 306 306 307
269 269 270 271 271 272 273 273 273 273 274 274 274 275 275 275 276 275 275 275 275 275 276 276 277 278 278 279 279 279 280 280 280 281 283 284 286 288 290 291 292 294 294 294 294 295 296 296 296 297 298 300 300 301 301 302 303 304 305 306 306 307
270 270 271 271 272 273 273 273 274 274 275 275 276 276 276 275 275 275 275 275 276 276 276 277 277 278 279 279 279 279 280 281 282 283 285 287 288 290 290 291 292 293 293 293 293 294 294 295 296 298 299 300 300 301 302 303 304 305 305 306 306 307
270 270 271 271 271 272 272 273 273 273 274 274 274 274 274 274 274 275 275 275 275 276 276 277 277 278 278 279 279 280 281 282 284 285 287 288 289 290 290 291 292 292 292 292 292 293 294 295 297 298 299 299 300 301 302 303 304 304 305 305 306 307
269 269 270 270 270 270 271 271 271 271 271 271 271 272 272 273 273 274 274 274 275 275 276 276 277 277 278 279 280 281 283 284 286 287 287 288 288 289 289 290 290 290 291 292 292 293 294 296 297 298 298 299 300 302 303 303 304 304 304 305 306 307
269 269 270 270 270 270 270 270 271 271 271 271 272 272 273 273 273 274 274 275 275 276 276 277 278 279 280 281 282 284 285 286 286 286 287 287 287 288 288 289 290 290 291 292 292 294 295 296 297 298 299 300 301 302 302 303 303 303 304 305 307 308
268 269 269 269 270 270 270 271 271 272 272 272 273 273 273 274 274 275 275 276 277 277 278 279 280 281 282 283 284 284 285 285 285 285 285 285 286 287 288 289 290 291 291 292 293 294 296 296 297 298 299 300 301 302 302 302 302 303 305 306 307 308
267 268 268 268 268 268 269 270 271 271 272 272 272 272 273 274 275 276 276 277 278 278 279 280 280 281 282 283 283 283 283 283 284 284 285 285 286 287 288 289 290 291 292 293 294 295 295 296 297 298 299 300 301 301 301 302 303 304 306 307 308 309
268 268 268 268 268 268 268 269 269 270 270 271 271 273 274 275 276 277 277 278 278 278 279 280 281 282 282 283 283 283 283 284 284 285 285 286 287 288 289 290 291 292 293 293 294 294 295 296 297 298 299 300 301 301 302 303 304 305 306 308 309 310
Height
5823 5824 5826 5827 5828 5829 5830 5830 5832 5833 5833 5834 5835 5835 5835 5835 5835 5835 5835 5835 5835 5834 5834 5834 5833 5832 5832 5831 5830 5829 5828 5826 5825 5824 5823 5822 5821 5819 5818 5816 5815 5813 5811 5809 5806 5803 5801 5798 5796 5794 5792 5789 5786 5783 5780 5777 5774 5771 5768 5765 5761 5758
5819 5820 5821 5823 5824 5825 5826 5826 5827 5828 5829 5830 5830 5831 5831 5831 5831 5831 5831 5831 5830 5830 5830 5829 5829 5828 5827 5826 5825 5824 5823 5822 5821 5820 5818 5817 5816 5814 5813 5811 5810 5807 5805 5803 5800 5798 5795 5793 5791 5789 5786 5784 5781 5778 5775 5771 5768 5765 5762 5758 5755 5752
5814 5815 5817 5818 5819 5820 5821 5822 5823 5824 5824 5825 5826 5826 5826 5826 5827 5827 5826 5826 5826 5826 5825 5824 5824 5823 5822 5821 5820 5819 5818 5817 5816 5815 5814 5812 5811 5809 5808 5806 5804 5802 5799 5797 5794 5792 5790 5788 5786 5783 5781 5778 5775 5772 5769 5766 5762 5759 5756 5752 5749 5746
5809 5810 5811 5813 5814 5815 5816 5817 5818 5819 5820 5820 5821 5821 5821 5822 5822 5822 5822 5822 5821 5821 5820 5819 5819 5818 5817 5816 5815 5814 5813 5812 5811 5810 5808 5807 5805 5804 5802 5800 5798 5796 5794 5791 5789 5787 5785 5783 5781 5778 5775 5772 5769 5766 5763 5759 5756 5752 5749 5746 5742 5739
5803 5804 5806 5807 5808 5810 5811 5812 5813 5814 5815 5815 5816 5816 5816 5817 5817 5817 5817 5817 5816 5816 5815 5814 5813 5812 5811 5810 5809 5809 5808 5807 5805 5804 5803 5801 5800 5799 5797 5795 5792 5790 5788 5786 5784 5782 5780 5778 5775 5772 5770 5767 5763 5760 5756 5753 5749 5745 5742 5738 5735 5732
5797 5798 5800 5801 5803 5804 5805 5806 5808 5809 5809 5810 5810 5811 5811 5811 5812 5812 5812 5811 5811 5810 5809 5808 5807 5807 5806 5805 5804 5803 5802 5801 5800 5798 5797 5796 5794 5793 5790 5788 5786 5784 5782 5781 5779 5777 5774 5772 5769 5767 5764 5761 5757 5754 5750 5746 5742 5738 5735 5731 5727 5724
5792 5793 5794 5796 5797 5799 5800 5801 5802 5803 5804 5804 5805 5805 5806 5806 5806 5806 5806 5805 5805 5804 5803 5802 5802 5801 5800 5799 5798 5797 5796 5795 5794 5792 5791 5790 5788 5786 5784 5782 5781 5779 5777 5775 5773 5771 5769 5766 5763 5760 5758 5754 5751 5747 5743 5739 5735 5731 5727 5724 5720 5717
5787 5788 5790 5791 5792 5793 5794 5795 5796 5797 5798 5798 5799 5800 5800 5800 5800 5800 5800 5799 5798 5798 5797 5797 5796 5795 5794 5793 5792 5791 5790 5789 5788 5786 5785 5783 5782 5780 5778 5777 5775 5773 5771 5769 5767 5765 5762 5760 5757 5754 5751 5748 5744 5740 5736 5732 5728 5724 5720 5716 5713 5709
5782 5783 5784 5785 5787 5788 5789 5790 5790 5791 5792 5793 5793 5794 5794 5794 5794 5794 5793 5793 5792 5792 5791 5791 5790 5789 5788 5787 5786 5785 5784 5782 5781 5780 5778 5777 5775 5774 5772 5771 5769 5767 5765 5763 5761 5759 5756 5753 5751 5748 5744 5741 5738 5734 5730 5726 5721 5717 5713 5708 5705 5701
5777 5778 5779 5780 5781 5782 5784 5784 5785 5786 5787 5787 5788 5788 5788 5788 5788 5787 5787 5786 5786 5786 5785 5784 5784 5783 5782 5781 5779 5778 5777 5776 5775 5774 5772 5771 5769 5767 5766 5764 5762 5760 5758 5756 5754 5752 5749 5747 5744 5741 5738 5734 5731 5727 5723 5719 5714 5710 5705 5700 5696 5693
5771 5773 5774 5775 5776 5777 5779 5779 5780 5781 5781 5782 5782 5782 5782 5782 5782 5781 5781 5781 5780 5780 5779 5778 5777 5777 5775 5774 5773 5772 5771 5770 5769 5767 5766 5764 5762 5761 5759 5757 5755 5753 5751 5749 5747 5745 5742 5740 5737 5734 5731 5727 5723 5719 5715 5711 5707 5703 5699 5694 5689 5685
5766 5767 5768 5770 5771 5772 5773 5774 5774 5775 5775 5776 5776 5776 5776 5775 5775 5775 5775 5775 5774 5774 5773 5772 5771 5770 5769 5768 5767 5766 5765 5764 5762 5761 5759 5757 5755 5753 5752 5750 5748 5746 5744 5742 5740 5738 5735 5732 5730 5726 5723 5719 5715 5711 5707 5703 5700 5696 5692 5688 5683 5678
5761 5762 5763 5764 5765 5766 5767 5768 5768 5769 5769 5769 5769 5769 5769 5769 5769 5769 5769 5768 5768 5767 5767 5766 5765 5764 5763 5762 5761 5760 5758 5757 5755 5754 5752 5750 5748 5746 5745 5743 5741 5739 5737 5735 5732 5730 5728 5725 5722 5719 5715 5712 5708 5704 5700 5696 5692 5688 5684 5681 5677 5672
5756 5757 5758 5759 5760 5761 5761 5762 5762 5762 5763 5763 5762 5762 5763 5763 5763 5763 5762 5762 5761 5761 5761 5760 5759 5758 5757 5756 5754 5753 5752 5750 5748 5747 5745 5743 5741 5739 5738 5736 5734 5732 5730 5728 5725 5723 5720 5717 5714 5711 5707 5704 5700 5697 5693 5689 5685 5681 5677 5673 5669 5665
5751 5752 5753 5753 5754 5755 5755 5755 5756 5755 5755 5755 5756 5756 5756 5756 5756 5756 5756 5756 5755 5755 5754 5753 5752 5751 5750 5749 5748 5746 5745 5743 5741 5740 5738 5736 5734 5732 5730 5728 5726 5724 5722 5720 5717 5715 5712 5709 5706 5703 5699 5696 5693 5689 5685 5682 5678 5674 5670 5666 5662 5658
5745 5746 5747 5747 5748 5748 5748 5749 5749 5748 5749 5749 5749 5750 5750 5750 5750 5749 5749 5749 5748 5748 5747 5747 5746 5745 5743 5742 5741 5739 5738 5736 5734 5732 5731 5729 5727 5725 5723 5720 5718 5716 5714 5712 5709 5706 5704 5701 5698 5695 5692 5689 5685 5681 5677 5674 5670 5667 5663 5659 5654 5650
5738 5739 5740 5740 5740 5741 5741 5742 5742 5742 5742 5743 5743 5743 5743 5743 5743 5743 5743 5742 5742 5742 5741 5740 5739 5738 5736 5735 5733 5732 5730 5729 5727 5726 5723 5721 5719 5717 5715 5713 5710 5708 5706 5704 5701 5698 5695 5693 5690 5687 5684 5681 5678 5674 5670 5666 5663 5659 5655 5651 5646 5642
5730 5731 5731 5732 5733 5734 5735 5736 5736 5736 5736 5737 5737 5737 5737 5737 5737 5737 5737 5736 5736 5735 5734 5733 5732 5730 5729 5727 5726 5724 5723 5721 5720 5718 5716 5714 5712 5709 5707 5705 5702 5700 5697 5695 5693 5691 5688 5685 5683 5680 5677 5674 5671 5667 5663 5659 5656 5652 5647 5643 5638 5633
5723 5724 5724 5725 5727 5728 5728 5729 5729 5730 5730 5730 5730 5731 5731 5731 5731 5730 5730 5730 5729 5728 5727 5726 5724 5723 5721 5720 5719 5717 5715 5714 5712 5711 5709 5706 5704 5702 5699 5697 5694 5692 5689 5687 5685 5683 5680 5677 5675 5673 5669 5667 5664 5660 5656 5652 5648 5644 5640 5635 5630 5625
5717 5718 5718 5719 5720 5721 5722 5722 5723 5723 5723 5723 5724 5724 5724 5724 5724 5723 5723 5722 5721 5720 5719 5718 5717 5716 5714 5712 5711 5709 5707 5706 5704 5702 5701 5698 5696 5694 5691 5689 5687 5684 5681 5679 5677 5675 5673 5670 5667 5665 5662 5659 5656 5653 5649 5645 5641 5636 5632 5627 5622 5617
5711 5711 5712 5714 5714 5715 5715 5715 5715 5716 5716 5717 5717 5717 5717 5718 5717 5716 5716 5715 5714 5713 5712 5711 5709 5708 5706 5705 5703 5702 5700 5698 5696 5694 5692 5690 5688 5685 5683 5681 5679 5676 5674 5672 5669 5667 5665 5662 5660 5657 5654 5651 5649 5646 5642 5637 5633 5629 5624 5619 5614 5609
5704 5705 5706 5707 5707 5708 5708 5708 5709 5709 5709 5710 5710 5710 5711 5710 5709 5709 5708 5707 5706 5705 5704 5703 5702 5700 5699 5697 5695 5694 5692 5690 5688 5686 5684 5682 5680 5678 5675 5673 5671 5669 5666 5664 5662 5660 5657 5654 5652 5649 5646 5643 5640 5637 5633 5629 5625 5622 5617 5612 5607 5601
5697 5698 5699 5700 5700 5701 5701 5702 5702 5703 5702 5702 5703 5703 5703 5702 5701 5701 5700 5699 5699 5698 5697 5695 5694 5692 5691 5689 5688 5686 5684 5682 5681 5679 5677 5674 5672 5670 5668 5666 5663 5661 5659 5656 5654 5652 5650 5647 5644 5641 5638 5635 5631 5628 5625 5621 5617 5614 5609 5604 5599 5593
5691 5691 5692 5693 5693 5694 5694 5694 5694 5695 5695 5695 5696 5696 5695 5694 5694 5693 5692 5692 5691 5690 5689 5687 5686 5685 5683 5682 5680 5678 5677 5675 5673 5671 5669 5666 5664 5662 5660 5658 5655 5653 5650 5649 5647 5645 5642 5639 5636 5632 5629 5626 5622 5619 5616 5612 5608 5605 5600 5595 5590 5585
5684 5684 5685 5685 5686 5686 5686 5686 5687 5687 5687 5688 5688 5688 5687 5686 5686 5685 5685 5684 5683 5682 5681 5679 5678 5677 5676 5674 5673 5671 5669 5667 5665 5663 5661 5659 5656 5655 5652 5649 5647 5645 5642 5640 5638 5636 5634 5631 5628 5624 5620 5617 5614 5610 5606 5602 5598 5594 5590 5586 5581 5576
5676 5677 5677 5677 5678 5678 5678 5679 5679 5679 5680 5680 5679 5679 5679 5678 5678 5677 5676 5676 5675 5674 5673 5672 5670 5669 5668 5666 5665 5663 5661 5659 5657 5655 5653 5651 5649 5647 5644 5642 5639 5637 5634 5632 5630 5628 5625 5622 5619 5616 5612 5608 5605 5601 5597 5593 5588 5584 5580 5575 5571 5566
5668 5669 5669 5669 5670 5670 5670 5670 5671 5671 5671 5671 5670 5670 5670 5670 5669 5669 5668 5667 5667 5666 5665 5664 5663 5662 5660 5658 5657 5655 5653 5651 5650 5648 5646 5644 5642 5639 5637 5634 5631 5629 5626 5624 5622 5619 5617 5614 5610 5607 5604 5600 5596 5592 5587 5583 5579 5575 5570 5565 5561 5556
5660 5660 5661 5661 5661 5662 5662 5662 5662 5662 5662 5662 5662 5662 5662 5661 5661 5661 5660 5660 5659 5659 5658 5657 5655 5654 5652 5650 5649 5647 5645 5644 5642 5640 5638 5636 5634 5631 5629 5626 5624 5621 5619 5616 5613 5611 5608 5605 5602 5598 5595 5591 5587 5582 5578 5574 5570 5565 5560 5556 5551 5546
5653 5653 5653 5653 5653 5654 5654 5654 5655 5655 5654 5654 5654 5654 5653 5653 5653 5653 5653 5652 5651 5651 5649 5648 5647 5645 5644 5642 5641 5639 5638 5636 5634 5633 5631 5629 5626 5624 5622 5619 5616 5614 5611 5608 5605 5602 5599 5596 5593 5589 5585 5581 5577 5573 5569 5564 5560 5555 5551 5546 5541 5536
5646 5646 5646 5646 5646 5647 5647 5647 5647 5647 5647 5647 5646 5646 5646 5646 5646 5645 5645 5644 5643 5642 5641 5640 5639 5637 5636 5634 5633 5632 5630 5628 5627 5625 5623 5621 5619 5617 5614 5611 5608 5605 5603 5600 5596 5593 5590 5587 5583 5580 5576 5572 5568 5564 5560 5555 5551 5547 5542 5537 5533 5528
5639 5639 5639 5639 5639 5639 5639 5639 5639 5639 5639 5639 5639 5639 5638 5638 5638 5637 5636 5635 5634 5634 5633 5631 5630 5629 5628 5627 5625 5624 5622 5621 5619 5617 5615 5613 5611 5609 5606 5602 5599 5597 5594 5591 5587 5584 5581 5577 5574 5571 5567 5563 5558 5554 5550 5547 5543 5538 5533 5528 5524 5519
5631 5631 5631 5632 5632 5631 5631 5631 5631 5631 5631 5631 5630 5630 5630 5629 5629 5629 5628 5627 5627 5626 5625 5623 5622 5621 5620 5619 5618 5616 5615 5613 5611 5609 5607 5605 5603 5600 5597 5594 5591 5589 5586 5582 5579 5575 5572 5568 5565 5561 5558 5553 5549 5544 5541 5537 5533 5528 5524 5519 5514 5510
5624 5624 5624 5624 5624 5624 5624 5624 5624 5624 5623 5623 5623 5622 5622 5622 5621 5621 5621 5620 5619 5618 5616 5615 5614 5613 5612 5611 5610 5608 5607 5605 5603 5601 5598 5596 5594 5591 5588 5585 5582 5580 5577 5574 5571 5567 5563 5559 5556 5553 5549 5544 5539 5535 5531 5528 5523 5518 5514 5509 5505 5501
5616 5616 5616 5616 5616 5616 5616 5616 5616 5616 5616 5615 5615 5615 5615 5615 5614 5613 5613 5611 5610 5610 5609 5608 5607 5606 5605 5603 5602 5600 5598 5597 5594 5592 5589 5587 5585 5582 5580 5577 5574 5571 5568 5565 5561 5557 5554 5551 5548 5544 5540 5535 5531 5526 5522 5518 5514 5509 5505 5500 5496 5491
5609 5609 5609 5609 5608 5608 5608 5608 5608 5608 5608 5607 5607 5607 5607 5606 5605 5605 5604 5603 5602 5602 5601 5600 5599 5597 5596 5594 5593 5591 5589 5587 5585 5582 5580 5578 5576 5573 5571 5568 5565 5562 5559 5555 5551 5547 5544 5542 5538 5535 5531 5526 5522 5517 5513 5508 5504 5500 5495 5490 5485 5481
5603 5602 5602 5601 5601 5601 5600 5600 5600 5599 5599 5599 5599 5598 5598 5598 5597 5597 5596 5595 5594 5593 5592 5591 5590 5588 5587 5585 5583 5581 5580 5578 5576 5574 5571 5569 5566 5564 5561 5559 5556 5553 5549 5545 5541 5538 5535 5532 5529 5525 5521 5517 5513 5508 5504 5499 5494 5490 5486 5481 5476 5472
5596 5596 5595 5595 5594 5594 5593 5593 5592 5592 5592 5591 5591 5591 5590 5590 5589 5589 5588 5587 5586 5584 5583 5582 5581 5579 5578 5576 5574 5572 5570 5568 5566 5564 5562 5559 5557 5554 5551 5549 5546 5542 5539 5535 5531 5528 5525 5522 5519 5515 5512 5508 5504 5499 5494 5489 5484 5480 5475 5471 5466 5461
5588 5588 5588 5587 5587 5586 5585 5584 5584 5584 5584 5583 5583 5583 5582 5582 5581 5580 5579 5578 5577 5575 5574 5573 5571 5570 5568 5567 5565 5563 5560 5558 5556 5554 5551 5549 5546 5544 5541 5538 5535 5532 5528 5524 5521 5518 5515 5512 5508 5505 5502 5498 5494 5490 5485 5480 5475 5471 5466 5461 5456 5452